OPS 4682 DEB, 38410

Orbit data source: Space-Track

OPS 4682 DEB, 38410 is space debris in LEO originally from a launch on Sat, 03 Apr 1965 UTC launched from the Air Force Western Test Range (AFWTR). Debris objects in space refer to the collection of defunct objects orbiting the Earth. Examples of debris include non-operational satellites, rocket bodies, and fragments generated from explosions, collisions, or faulty payload assembly.

Loading next visibility...
Identifier
38410, 1965-027DP
Orbit
LEO
Country
Flag of USUS
Related business
Manufacturer
Unknown
Mission
Spacecraft
Bus & Motor
Unknown
Mass
Unknown
Launch date (UTC)
1965-04-03 (61 years ago)
Launch vehicle
Unknown
Launch site
Air Force Western Test Range (AFWTR)
Object type
Payload
Rocket body
Debris
Shape & HBR
Unknown shape, 0.1 m
Radar Cross Section
Small (<0.1 m²)

Expand to show TLE details & history
Last TLE update: 20 hours ago

TLE from 20 hours ago
0 OPS 4682 DEB
1 38410U 65027DP  26104.19173707  .00000619  00000-0  21027-2 0  9994
2 38410  90.2478   9.3699 0030977 278.8369  80.9245 12.97540685622705
Epoch: 2026-04-14T04:36Z
TLE epoch observation values (Epoch: 2026-04-14T04:36:06.082Z)
Latitude
-0°
Longitude
97.97304°
Altitude
1,270.951 km
Speed
7.222 km/s
True Right ascension
00h 37m 28s
True Declination
0° 00' 00"
Sunlit
Object was in daylight at epoch
Visualization orbit readout
Latitude
Unknown
Longitude
Unknown
Altitude
Unknown
Speed
Unknown
Apparent Right ascension
Unknown
Apparent Declination
Unknown
Sunlit
N/A
Visualization observer readout
Local Sidereal Time
07:22:45
Azimuth
Unknown
Elevation
Unknown
Doppler factor
Unknown
Orbital elements
Apogee altitude
1,292.556 km
Perigee altitude
1,245.18 km
Semi-major axis
7,647.005 km
Eccentricity
0.0031
Inclination
90.2478°
RAAN
9.3699°
Arg. of periapsis
278.8369°
True anomaly
81.27524°
Mean anomaly
80.9245°
Eccentric anomaly
81.09985°
Mean motion
3.24568 °/min
Orbital period
110.92 mins
BSTAR
0.0021027
Loading maneuver chart data...
Computing Atmospheric mass density...
Loading historical data...
Loading historical data...
Loading historical data...
Loading historical data...
Loading historical data...
Loading historical data...
Loading historical data...

Documentation

Showing up to 5 results
|